QPF
0.00 0.00 0.00 0.00 0.00 0.00 0.00 0.00 0.00 0.00 0.00 0.00 0.00 0.00 0.00 0.00 0.00 0.00 0.00 0.00 0.00 0.00 0.00 0.00 0.00 0.00 0.01 0.00 0.00 0.01 0.00 0.00 0.00 0.00 0.00 0.00 0.00 0.00 0.00 0.00 0.00 0.00 0.00 0.00 0.00 0.00 0.00 0.00 0.00
0.00 0.00 0.00 0.00 0.00 0.00 0.00 0.00 0.00 0.00 0.00 0.00 0.00 0.00 0.00 0.00 0.00 0.00 0.00 0.00 0.00 0.00 0.00 0.00 0.00 0.00 0.01 0.00 0.00 0.01 0.00 0.00 0.00 0.00 0.00 0.00 0.00 0.00 0.00 0.00 0.00 0.00 0.00 0.00 0.00 0.00 0.00 0.00 0.00
0.00 0.00 0.00 0.00 0.00 0.00 0.00 0.00 0.00 0.00 0.00 0.00 0.00 0.00 0.00 0.00 0.00 0.00 0.00 0.00 0.00 0.00 0.00 0.00 0.00 0.00 0.01 0.00 0.00 0.01 0.00 0.00 0.00 0.00 0.00 0.00 0.00 0.00 0.00 0.00 0.00 0.00 0.00 0.00 0.00 0.00 0.00 0.00 0.00
0.00 0.00 0.00 0.00 0.00 0.00 0.00 0.00 0.00 0.00 0.00 0.00 0.00 0.00 0.00 0.00 0.00 0.00 0.00 0.00 0.00 0.00 0.00 0.00 0.00 0.01 0.01 0.00 0.00 0.01 0.00 0.00 0.00 0.00 0.00 0.00 0.00 0.00 0.00 0.00 0.00 0.00 0.00 0.00 0.00 0.00 0.00 0.00 0.00
0.00 0.00 0.00 0.00 0.00 0.00 0.00 0.00 0.00 0.00 0.00 0.00 0.00 0.00 0.00 0.00 0.00 0.00 0.00 0.00 0.00 0.00 0.00 0.00 0.00 0.01 0.01 0.00 0.01 0.00 0.00 0.00 0.00 0.00 0.00 0.00 0.00 0.00 0.00 0.00 0.00 0.00 0.00 0.00 0.00 0.00 0.00 0.00 0.00
0.00 0.00 0.00 0.00 0.00 0.00 0.00 0.00 0.00 0.00 0.00 0.00 0.00 0.00 0.00 0.00 0.00 0.00 0.00 0.00 0.00 0.00 0.00 0.00 0.01 0.02 0.01 0.00 0.00 0.00 0.00 0.00 0.00 0.00 0.00 0.00 0.00 0.00 0.00 0.00 0.00 0.00 0.00 0.00 0.00 0.00 0.00 0.00 0.00
0.00 0.00 0.00 0.00 0.00 0.00 0.00 0.00 0.00 0.00 0.00 0.00 0.00 0.00 0.00 0.00 0.00 0.00 0.00 0.01 0.00 0.00 0.00 0.00 0.01 0.02 0.01 0.00 0.00 0.00 0.00 0.00 0.00 0.00 0.00 0.00 0.00 0.00 0.00 0.00 0.00 0.00 0.00 0.00 0.00 0.00 0.00 0.00 0.00
0.00 0.00 0.00 0.00 0.00 0.00 0.00 0.00 0.00 0.00 0.00 0.00 0.00 0.00 0.00 0.00 0.00 0.00 0.00 0.02 0.01 0.01 0.01 0.01 0.03 0.03 0.03 0.01 0.00 0.00 0.00 0.00 0.00 0.00 0.00 0.00 0.00 0.00 0.00 0.00 0.00 0.00 0.00 0.00 0.00 0.00 0.00 0.00 0.00
0.00 0.00 0.00 0.00 0.00 0.00 0.00 0.00 0.00 0.00 0.00 0.00 0.00 0.00 0.00 0.00 0.00 0.00 0.01 0.03 0.03 0.02 0.01 0.02 0.06 0.06 0.03 0.01 0.00 0.00 0.00 0.00 0.00 0.00 0.00 0.00 0.00 0.00 0.00 0.00 0.00 0.00 0.00 0.00 0.00 0.00 0.00 0.00 0.00
0.00 0.00 0.00 0.00 0.00 0.00 0.00 0.00 0.00 0.00 0.00 0.00 0.00 0.00 0.00 0.00 0.00 0.00 0.01 0.04 0.05 0.02 0.01 0.04 0.11 0.08 0.02 0.00 0.00 0.00 0.00 0.00 0.00 0.00 0.00 0.00 0.00 0.00 0.00 0.00 0.00 0.00 0.00 0.00 0.00 0.00 0.00 0.00 0.00
0.00 0.00 0.00 0.00 0.00 0.00 0.00 0.00 0.00 0.00 0.00 0.00 0.00 0.00 0.00 0.00 0.00 0.00 0.01 0.05 0.07 0.03 0.02 0.06 0.13 0.07 0.00 0.00 0.00 0.00 0.00 0.00 0.00 0.00 0.00 0.00 0.00 0.00 0.00 0.00 0.00 0.00 0.00 0.00 0.00 0.00 0.00 0.00 0.00
0.00 0.00 0.00 0.00 0.00 0.00 0.00 0.00 0.00 0.00 0.00 0.00 0.00 0.00 0.00 0.00 0.00 0.00 0.00 0.02 0.09 0.10 0.07 0.09 0.09 0.05 0.00 0.00 0.00 0.00 0.00 0.00 0.00 0.00 0.00 0.00 0.00 0.00 0.00 0.00 0.00 0.00 0.00 0.00 0.00 0.00 0.00 0.00 0.00
0.00 0.00 0.00 0.00 0.00 0.00 0.00 0.00 0.00 0.00 0.00 0.00 0.00 0.00 0.00 0.00 0.00 0.00 0.00 0.01 0.04 0.09 0.14 0.08 0.05 0.03 0.00 0.00 0.00 0.00 0.00 0.00 0.00 0.00 0.00 0.00 0.00 0.00 0.00 0.00 0.00 0.00 0.00 0.00 0.00 0.00 0.00 0.00 0.00
0.00 0.00 0.00 0.00 0.00 0.00 0.00 0.00 0.00 0.00 0.00 0.00 0.00 0.00 0.00 0.00 0.00 0.00 0.00 0.00 0.03 0.05 0.10 0.10 0.06 0.03 0.01 0.00 0.00 0.00 0.00 0.00 0.00 0.00 0.00 0.00 0.00 0.00 0.00 0.00 0.00 0.00 0.00 0.00 0.00 0.00 0.00 0.00 0.00
0.00 0.00 0.00 0.00 0.00 0.00 0.00 0.00 0.00 0.00 0.00 0.00 0.00 0.00 0.00 0.00 0.00 0.00 0.00 0.00 0.01 0.06 0.14 0.10 0.06 0.06 0.02 0.00 0.00 0.00 0.00 0.00 0.00 0.00 0.00 0.00 0.00 0.00 0.00 0.00 0.00 0.00 0.00 0.00 0.00 0.00 0.00 0.00 0.00
0.00 0.00 0.00 0.00 0.00 0.00 0.00 0.00 0.00 0.00 0.00 0.00 0.00 0.00 0.00 0.00 0.00 0.00 0.00 0.00 0.00 0.08 0.13 0.10 0.06 0.08 0.05 0.01 0.00 0.00 0.00 0.00 0.00 0.00 0.00 0.00 0.00 0.00 0.00 0.00 0.00 0.00 0.00 0.00 0.00 0.00 0.00 0.00 0.00
0.00 0.00 0.00 0.00 0.00 0.00 0.00 0.00 0.00 0.00 0.00 0.00 0.00 0.00 0.00 0.00 0.00 0.00 0.00 0.00 0.01 0.06 0.11 0.10 0.06 0.06 0.04 0.02 0.00 0.00 0.00 0.00 0.00 0.00 0.00 0.00 0.00 0.00 0.00 0.00 0.00 0.00 0.00 0.00 0.00 0.00 0.00 0.00 0.00
0.00 0.00 0.00 0.00 0.00 0.00 0.00 0.00 0.00 0.00 0.00 0.00 0.00 0.00 0.00 0.00 0.00 0.00 0.00 0.00 0.03 0.10 0.08 0.04 0.03 0.04 0.02 0.01 0.00 0.00 0.00 0.00 0.00 0.00 0.00 0.00 0.00 0.00 0.00 0.00 0.00 0.00 0.00 0.00 0.00 0.00 0.00 0.00 0.00
0.00 0.00 0.00 0.00 0.00 0.00 0.00 0.00 0.00 0.00 0.00 0.00 0.00 0.00 0.00 0.00 0.00 0.00 0.00 0.00 0.00 0.06 0.07 0.03 0.01 0.01 0.01 0.01 0.00 0.00 0.00 0.00 0.00 0.00 0.00 0.00 0.00 0.00 0.00 0.00 0.00 0.00 0.00 0.00 0.00 0.00 0.00 0.00 0.00
0.00 0.00 0.00 0.00 0.00 0.00 0.00 0.00 0.00 0.00 0.00 0.00 0.00 0.00 0.00 0.00 0.00 0.00 0.00 0.00 0.00 0.02 0.06 0.03 0.01 0.00 0.00 0.00 0.00 0.00 0.00 0.00 0.00 0.00 0.00 0.00 0.00 0.00 0.00 0.00 0.00 0.00 0.00 0.00 0.00 0.00 0.00 0.00 0.00
0.00 0.00 0.00 0.00 0.00 0.00 0.00 0.00 0.00 0.00 0.00 0.00 0.00 0.00 0.00 0.00 0.00 0.00 0.00 0.00 0.01 0.00 0.02 0.03 0.00 0.00 0.00 0.00 0.00 0.00 0.00 0.00 0.00 0.00 0.00 0.00 0.00 0.00 0.00 0.00 0.00 0.00 0.00 0.00 0.00 0.00 0.00 0.00 0.00
0.00 0.00 0.00 0.00 0.00 0.00 0.00 0.00 0.00 0.00 0.00 0.00 0.00 0.00 0.00 0.00 0.00 0.00 0.00 0.00 0.00 0.00 0.01 0.02 0.01 0.00 0.00 0.00 0.00 0.00 0.00 0.00 0.00 0.00 0.00 0.00 0.00 0.00 0.00 0.00 0.00 0.00 0.00 0.00 0.00 0.00 0.00 0.00 0.00
0.00 0.00 0.00 0.00 0.00 0.00 0.00 0.00 0.00 0.00 0.00 0.00 0.00 0.00 0.00 0.00 0.00 0.00 0.00 0.00 0.00 0.01 0.00 0.00 0.01 0.02 0.00 0.00 0.00 0.00 0.00 0.00 0.00 0.00 0.00 0.00 0.00 0.00 0.00 0.00 0.00 0.00 0.00 0.00 0.00 0.00 0.00 0.00 0.00
0.00 0.00 0.00 0.00 0.00 0.00 0.00 0.00 0.00 0.00 0.00 0.00 0.00 0.00 0.00 0.00 0.00 0.00 0.00 0.00 0.00 0.00 0.00 0.00 0.00 0.02 0.00 0.00 0.00 0.00 0.00 0.00 0.00 0.00 0.00 0.00 0.00 0.00 0.00 0.00 0.00 0.00 0.00 0.00 0.00 0.00 0.00 0.00 0.00
0.00 0.00 0.00 0.00 0.00 0.00 0.00 0.00 0.00 0.00 0.00 0.00 0.00 0.00 0.00 0.00 0.00 0.00 0.00 0.00 0.00 0.00 0.00 0.00 0.00 0.01 0.01 0.00 0.00 0.00 0.00 0.00 0.00 0.00 0.00 0.00 0.00 0.00 0.00 0.00 0.00 0.00 0.00 0.00 0.00 0.00 0.00 0.00 0.00
0.00 0.00 0.00 0.00 0.00 0.00 0.00 0.00 0.00 0.00 0.00 0.00 0.00 0.00 0.00 0.00 0.00 0.00 0.00 0.00 0.00 0.00 0.00 0.00 0.00 0.00 0.00 0.00 0.01 0.00 0.00 0.00 0.00 0.00 0.00 0.00 0.00 0.00 0.00 0.00 0.00 0.00 0.00 0.00 0.00 0.00 0.00 0.00 0.00
0.00 0.00 0.00 0.00 0.00 0.00 0.00 0.00 0.00 0.00 0.00 0.00 0.00 0.00 0.00 0.00 0.00 0.00 0.00 0.00 0.00 0.00 0.00 0.00 0.00 0.00 0.01 0.01 0.01 0.00 0.00 0.00 0.00 0.00 0.00 0.00 0.00 0.00 0.00 0.00 0.00 0.00 0.00 0.00 0.00 0.00 0.00 0.00 0.00
0.00 0.00 0.00 0.00 0.00 0.00 0.00 0.00 0.00 0.00 0.00 0.00 0.00 0.00 0.00 0.00 0.00 0.00 0.00 0.00 0.00 0.00 0.00 0.00 0.00 0.00 0.03 0.06 0.03 0.01 0.00 0.00 0.00 0.00 0.00 0.00 0.00 0.00 0.00 0.00 0.00 0.00 0.00 0.00 0.00 0.00 0.00 0.00 0.00
0.00 0.00 0.00 0.00 0.00 0.00 0.00 0.00 0.00 0.00 0.00 0.00 0.00 0.00 0.00 0.00 0.00 0.00 0.00 0.00 0.00 0.00 0.00 0.00 0.01 0.01 0.00 0.01 0.03 0.04 0.01 0.00 0.00 0.00 0.00 0.00 0.00 0.00 0.00 0.00 0.00 0.00 0.00 0.00 0.00 0.00 0.00 0.00 0.00
0.00 0.00 0.00 0.00 0.00 0.00 0.00 0.00 0.00 0.00 0.00 0.00 0.00 0.00 0.00 0.00 0.00 0.00 0.00 0.00 0.00 0.00 0.00 0.01 0.01 0.01 0.00 0.01 0.03 0.02 0.02 0.01 0.00 0.00 0.00 0.00 0.00 0.00 0.00 0.00 0.00 0.00 0.00 0.00 0.00 0.00 0.00 0.00 0.00
MSLP
1011.18 1010.28 1009.94 1009.24 1008.24 1006.36 1004.43 1003.48 1002.91 1002.76 1002.95 1003.12 1003.66 1003.43 1002.69 1002.50 1002.04 1003.04 1004.53 1004.60 1004.97 1005.53 1006.61 1007.65 1008.10 1008.65 1009.04 1009.46 1009.85 1010.24 1010.64 1010.99 1011.48 1011.93 1012.36 1012.68 1012.94 1013.21 1013.46 1013.72 1013.89 1014.10 1014.33 1014.54 1014.72 1014.87 1015.00 1015.18 1015.39
1011.25 1010.24 1009.75 1008.18 1007.10 1005.01 1003.60 1002.91 1002.83 1003.53 1003.73 1004.29 1004.35 1004.09 1003.88 1003.14 1002.82 1002.89 1003.83 1005.25 1005.10 1005.60 1006.48 1007.49 1008.16 1008.72 1009.02 1009.50 1009.95 1010.39 1010.79 1011.15 1011.75 1012.16 1012.53 1012.85 1013.08 1013.38 1013.70 1013.97 1014.20 1014.37 1014.59 1014.78 1014.93 1015.15 1015.29 1015.52 1015.64
1010.96 1010.52 1009.09 1007.70 1006.11 1004.63 1003.59 1003.48 1003.65 1004.10 1004.28 1004.85 1005.03 1004.54 1004.70 1003.40 1003.96 1004.03 1004.75 1005.67 1005.64 1005.68 1006.42 1007.25 1008.31 1008.70 1009.05 1009.53 1010.01 1010.52 1010.94 1011.32 1011.95 1012.35 1012.69 1013.02 1013.32 1013.55 1013.90 1014.21 1014.45 1014.67 1014.86 1015.03 1015.17 1015.35 1015.52 1015.67 1015.82
1010.48 1009.99 1009.35 1007.84 1005.73 1004.79 1004.72 1004.88 1005.64 1005.73 1005.59 1005.44 1005.55 1005.39 1005.04 1004.62 1005.01 1005.52 1005.63 1005.98 1006.00 1005.88 1006.29 1007.40 1008.42 1008.81 1009.10 1009.60 1010.12 1010.67 1011.12 1011.53 1012.07 1012.50 1012.85 1013.20 1013.49 1013.79 1014.12 1014.48 1014.72 1014.95 1015.10 1015.21 1015.44 1015.58 1015.77 1015.87 1016.08
1010.49 1009.74 1008.41 1007.26 1006.17 1005.60 1005.71 1006.29 1006.50 1006.53 1006.38 1005.91 1005.96 1005.51 1005.24 1004.90 1005.43 1006.36 1006.83 1006.36 1006.03 1006.06 1006.41 1007.72 1008.51 1008.87 1009.18 1009.66 1010.22 1010.70 1011.21 1011.76 1012.22 1012.60 1012.98 1013.35 1013.68 1014.06 1014.39 1014.73 1014.93 1015.13 1015.28 1015.41 1015.70 1015.88 1016.08 1016.28 1016.50
1010.05 1009.77 1008.10 1006.77 1005.73 1005.87 1006.53 1006.93 1007.08 1006.90 1006.71 1006.41 1005.98 1005.80 1005.56 1005.43 1005.73 1006.69 1007.02 1006.94 1006.35 1006.04 1006.47 1007.57 1008.60 1009.09 1009.32 1009.75 1010.27 1010.74 1011.33 1011.87 1012.35 1012.69 1013.09 1013.44 1013.89 1014.28 1014.62 1014.90 1015.09 1015.26 1015.43 1015.67 1015.92 1016.16 1016.45 1016.68 1016.91
1010.32 1009.52 1008.02 1007.20 1006.76 1006.52 1006.66 1007.50 1007.48 1007.11 1006.73 1006.32 1006.18 1005.78 1005.91 1005.70 1006.14 1006.77 1006.83 1007.08 1006.84 1006.33 1006.58 1007.16 1008.43 1009.06 1009.47 1009.98 1010.41 1010.76 1011.46 1011.95 1012.48 1012.84 1013.26 1013.67 1014.11 1014.46 1014.72 1015.01 1015.18 1015.41 1015.56 1015.88 1016.20 1016.48 1016.79 1017.10 1017.36
1011.01 1010.26 1008.39 1007.60 1007.08 1006.89 1007.27 1008.10 1008.02 1007.89 1007.23 1006.97 1006.92 1006.48 1005.91 1005.84 1006.31 1006.92 1006.93 1007.31 1006.96 1006.65 1006.70 1007.17 1007.94 1008.74 1009.27 1010.01 1010.58 1011.00 1011.64 1012.11 1012.60 1013.06 1013.51 1013.98 1014.41 1014.68 1014.88 1015.11 1015.33 1015.51 1015.85 1016.18 1016.47 1016.78 1017.17 1017.49 1017.81
1011.72 1010.33 1008.35 1007.73 1007.68 1007.36 1007.67 1007.89 1007.91 1007.89 1007.52 1007.24 1007.13 1006.79 1006.69 1006.06 1006.58 1006.77 1007.02 1007.26 1007.15 1007.11 1006.89 1006.95 1007.74 1008.31 1008.94 1009.73 1010.61 1011.24 1011.92 1012.30 1012.72 1013.31 1013.81 1014.19 1014.20 1014.65 1015.08 1014.98 1015.57 1015.79 1016.16 1016.47 1016.71 1017.06 1017.56 1017.89 1018.17
1011.49 1010.06 1008.71 1008.56 1008.52 1008.26 1008.22 1008.20 1007.96 1007.86 1007.21 1006.60 1006.58 1006.48 1006.44 1006.43 1006.45 1006.31 1006.81 1007.11 1007.20 1007.19 1006.70 1006.77 1007.61 1008.14 1008.63 1009.53 1010.44 1011.08 1011.79 1012.30 1012.59 1013.09 1013.73 1013.60 1013.82 1014.27 1014.48 1015.38 1015.83 1016.17 1016.46 1016.70 1017.01 1017.50 1017.86 1017.85 1018.07
1010.96 1010.19 1009.28 1009.10 1009.03 1008.96 1008.67 1008.27 1008.02 1007.48 1006.36 1006.25 1005.96 1005.92 1005.82 1005.81 1005.69 1005.72 1006.09 1006.63 1006.93 1006.87 1006.42 1006.57 1007.39 1007.97 1008.59 1009.28 1009.80 1010.64 1011.34 1011.80 1012.04 1012.56 1013.13 1012.89 1013.48 1014.40 1014.84 1015.60 1015.92 1016.33 1016.70 1016.76 1017.26 1017.74 1017.47 1017.25 1017.69
1011.30 1010.15 1009.84 1009.36 1009.19 1009.08 1008.71 1008.20 1007.48 1007.15 1005.69 1005.83 1005.67 1005.59 1005.63 1005.54 1005.43 1005.39 1005.66 1006.00 1006.38 1006.57 1006.33 1006.63 1007.32 1007.82 1008.14 1008.95 1009.30 1009.82 1010.83 1011.20 1011.53 1012.19 1012.49 1012.84 1013.57 1014.21 1014.54 1015.08 1015.43 1015.93 1016.21 1016.62 1016.91 1017.03 1016.99 1017.26 1017.51
1010.85 1010.17 1009.72 1009.39 1009.09 1008.85 1008.48 1007.67 1007.01 1005.87 1005.40 1005.15 1004.89 1004.90 1004.89 1004.91 1005.04 1005.10 1005.22 1005.36 1005.63 1006.09 1006.40 1006.61 1007.16 1007.59 1007.71 1008.40 1008.73 1009.29 1010.24 1010.82 1011.37 1011.94 1012.32 1012.90 1013.30 1013.70 1014.12 1014.59 1015.09 1015.49 1015.76 1016.16 1016.49 1016.68 1017.07 1017.32 1017.53
1010.40 1010.22 1009.50 1008.96 1008.48 1008.20 1007.94 1006.93 1006.67 1004.76 1004.60 1004.15 1004.10 1004.03 1004.11 1004.17 1004.37 1004.54 1004.56 1004.62 1004.84 1005.66 1005.92 1006.35 1007.11 1007.20 1007.51 1007.95 1008.29 1009.07 1009.89 1010.74 1011.48 1012.01 1012.41 1012.76 1013.17 1013.55 1014.01 1014.66 1014.99 1015.35 1015.69 1015.97 1016.34 1016.68 1017.09 1017.38 1017.71
1010.88 1010.04 1008.84 1007.68 1007.84 1007.87 1007.63 1006.06 1004.84 1004.04 1003.80 1003.55 1003.37 1003.41 1003.46 1003.51 1003.64 1003.67 1003.95 1003.91 1004.29 1004.89 1006.23 1007.19 1007.13 1006.74 1007.42 1007.40 1008.30 1009.00 1009.65 1010.40 1011.40 1011.99 1012.49 1012.83 1013.20 1013.50 1014.03 1014.54 1015.03 1015.37 1015.70 1015.96 1016.16 1016.62 1017.08 1017.64 1017.99
1010.32 1009.53 1007.81 1006.88 1007.12 1007.40 1007.78 1004.54 1003.74 1003.27 1003.09 1002.74 1002.65 1002.61 1002.54 1002.70 1003.15 1003.19 1003.27 1003.32 1003.65 1004.05 1005.15 1006.04 1005.90 1006.57 1007.25 1006.88 1007.93 1008.69 1009.40 1010.12 1011.01 1011.73 1012.34 1012.83 1013.26 1013.53 1014.00 1014.50 1015.04 1015.40 1015.91 1016.25 1016.49 1016.91 1017.36 1017.81 1018.28
1009.11 1008.00 1007.14 1006.52 1007.03 1007.20 1007.14 1004.44 1003.28 1003.30 1002.35 1001.72 1001.59 1001.71 1001.94 1002.02 1002.34 1002.66 1002.89 1002.93 1003.28 1003.89 1005.04 1005.51 1007.11 1007.24 1007.48 1006.92 1007.87 1008.78 1009.22 1009.88 1010.53 1011.39 1012.07 1012.76 1013.23 1013.59 1013.91 1014.46 1014.95 1015.70 1016.13 1016.63 1016.96 1017.23 1017.54 1017.92 1018.41
1008.28 1007.55 1006.76 1006.29 1006.14 1005.95 1005.58 1004.17 1002.99 1002.22 1001.48 1001.05 1000.77 1000.84 1001.21 1001.49 1001.74 1002.17 1002.49 1002.89 1003.40 1004.05 1004.91 1005.90 1006.64 1008.00 1006.46 1009.23 1007.79 1009.57 1009.85 1009.63 1010.19 1011.05 1011.60 1012.66 1013.24 1013.62 1013.88 1014.48 1014.92 1015.46 1015.92 1016.36 1016.96 1017.16 1017.56 1018.03 1018.63
1008.13 1007.70 1006.73 1006.09 1005.70 1006.11 1004.90 1003.74 1002.44 1001.67 1001.10 1000.70 1000.45 1000.30 1000.57 1000.88 1001.30 1001.85 1002.10 1002.68 1003.77 1005.28 1006.20 1006.40 1007.29 1007.32 1009.16 1009.98 1010.87 1010.31 1010.39 1009.81 1010.23 1010.92 1011.43 1012.47 1013.08 1013.55 1013.77 1014.50 1015.10 1015.43 1015.80 1016.31 1016.91 1017.33 1017.53 1018.15 1018.87
1008.25 1007.48 1006.50 1005.68 1006.02 1005.86 1004.33 1002.78 1001.84 1001.15 1000.95 1000.72 1000.41 1000.33 1000.50 1000.73 1001.17 1001.66 1002.10 1002.91 1004.45 1005.27 1006.11 1007.11 1007.70 1008.84 1009.42 1011.34 1011.88 1011.72 1011.00 1010.61 1010.47 1010.96 1011.68 1012.30 1013.04 1013.47 1013.80 1014.33 1015.06 1015.44 1015.82 1016.40 1016.82 1017.33 1017.70 1018.25 1018.93
1007.77 1007.17 1006.45 1006.25 1005.94 1005.08 1004.55 1001.56 1000.96 1000.97 1000.90 1000.56 1000.23 1000.37 1000.85 1001.13 1001.34 1001.42 1001.88 1002.69 1004.36 1005.37 1005.98 1006.51 1007.14 1007.91 1008.81 1009.05 1011.31 1011.99 1011.86 1011.32 1011.08 1011.43 1012.03 1012.31 1012.78 1013.36 1013.63 1014.14 1014.81 1015.22 1015.71 1016.21 1016.83 1017.35 1017.75 1018.30 1018.85
1007.32 1007.15 1007.08 1006.88 1006.49 1005.37 1004.65 1002.63 1000.63 1000.43 1000.38 1000.24 1000.11 1000.46 1000.86 1001.21 1001.63 1001.81 1001.76 1002.38 1003.57 1004.64 1005.74 1006.57 1007.39 1007.30 1007.58 1007.54 1008.88 1010.62 1011.44 1011.24 1010.75 1011.41 1011.77 1012.18 1012.51 1013.11 1013.53 1014.07 1014.56 1015.23 1015.62 1016.10 1016.84 1017.29 1017.80 1018.15 1018.82
1007.42 1007.80 1007.55 1007.11 1006.67 1005.94 1004.34 1003.61 1000.40 1000.50 1000.17 1000.27 1000.50 1000.98 1001.23 1001.46 1001.66 1001.83 1002.00 1002.15 1003.01 1004.22 1005.27 1006.14 1006.62 1006.86 1007.42 1008.00 1008.59 1008.83 1009.22 1010.02 1010.20 1010.94 1011.48 1011.94 1012.39 1012.80 1013.26 1013.95 1014.42 1015.16 1015.64 1016.13 1016.72 1017.24 1017.70 1018.09 1018.66
1007.88 1007.78 1006.99 1006.82 1006.71 1005.64 1003.57 1003.26 1000.90 1000.23 1000.51 1000.54 1000.90 1001.56 1001.77 1001.77 1001.60 1001.70 1002.05 1002.05 1002.35 1003.57 1004.69 1005.63 1006.17 1006.60 1007.12 1007.72 1007.86 1008.31 1009.15 1009.29 1009.83 1010.07 1010.57 1011.40 1011.92 1012.34 1012.89 1013.60 1014.40 1014.91 1015.60 1016.18 1016.82 1017.41 1017.86 1018.15 1018.48
1008.22 1007.70 1006.59 1006.25 1006.20 1004.57 1004.23 1003.43 1000.92 1000.37 1000.59 1001.12 1001.60 1002.01 1002.29 1002.07 1001.85 1001.72 1001.85 1002.04 1002.23 1003.40 1004.42 1005.06 1005.66 1006.06 1006.75 1007.34 1007.70 1008.29 1008.93 1009.31 1008.80 1009.22 1009.98 1010.83 1011.22 1011.79 1012.19 1012.95 1013.87 1014.57 1015.31 1016.01 1016.72 1017.46 1018.03 1018.42 1018.73
1007.50 1007.52 1006.98 1005.93 1005.15 1004.36 1003.75 1002.41 1000.25 1000.60 1001.24 1001.65 1002.06 1002.35 1002.51 1002.38 1002.21 1001.94 1001.78 1002.02 1002.15 1002.90 1004.12 1004.97 1005.36 1005.78 1006.22 1006.52 1006.82 1007.38 1008.16 1008.25 1008.98 1009.46 1009.99 1010.63 1011.41 1011.61 1011.90 1012.68 1013.54 1014.31 1015.10 1015.85 1016.61 1017.47 1018.02 1018.52 1019.03
1007.59 1007.47 1007.29 1006.74 1005.70 1005.21 1003.14 1001.74 1000.57 1000.71 1001.53 1001.74 1002.30 1002.59 1002.73 1002.67 1002.32 1002.19 1001.96 1001.85 1001.98 1002.18 1003.20 1004.26 1004.91 1005.24 1005.36 1005.79 1006.42 1007.20 1008.15 1008.12 1008.85 1009.69 1010.13 1010.62 1011.64 1012.00 1012.40 1012.91 1013.53 1014.39 1015.17 1015.82 1016.55 1017.42 1018.06 1018.78 1019.45
1008.02 1007.98 1007.40 1006.98 1005.91 1004.24 1002.64 1001.73 1001.13 1001.07 1001.44 1002.41 1002.62 1002.77 1003.08 1002.95 1002.57 1002.30 1002.11 1001.80 1001.72 1001.76 1002.35 1003.46 1004.31 1004.62 1005.18 1005.64 1006.04 1006.55 1007.50 1007.94 1008.74 1009.22 1009.83 1010.44 1011.23 1011.77 1012.82 1013.44 1014.26 1015.17 1015.50 1016.05 1016.74 1017.60 1018.35 1018.96 1019.94
1007.94 1007.78 1007.70 1007.23 1006.13 1004.86 1003.06 1001.49 1000.91 1001.37 1002.12 1002.20 1002.60 1003.35 1003.83 1003.64 1003.25 1002.74 1002.21 1001.87 1001.50 1001.62 1001.80 1002.79 1003.88 1004.55 1004.78 1005.32 1005.99 1006.52 1007.07 1007.63 1008.39 1008.90 1009.34 1010.38 1010.95 1012.06 1012.85 1013.63 1014.61 1015.46 1016.06 1016.51 1017.01 1017.76 1018.53 1019.05 1020.05
1008.22 1007.77 1007.48 1006.98 1006.15 1005.36 1004.25 1002.33 1001.33 1001.69 1001.93 1002.26 1003.39 1004.02 1004.26 1004.58 1004.22 1003.50 1002.41 1001.82 1001.45 1001.72 1002.36 1002.79 1003.30 1003.96 1004.67 1004.95 1005.60 1006.26 1006.64 1007.25 1008.03 1008.86 1009.41 1010.22 1011.03 1011.84 1013.18 1014.01 1015.14 1015.96 1016.83 1017.17 1017.29 1017.79 1018.69 1019.25 1020.02
Thickness
5697 5704 5706 5703 5689 5698 5700 5710 5731 5724 5723 5736 5732 5733 5738 5745 5743 5731 5757 5766 5768 5766 5760 5754 5752 5749 5747 5746 5744 5743 5742 5742 5740 5738 5737 5736 5735 5734 5734 5733 5733 5733 5731 5731 5729 5729 5728 5726 5725
5692 5699 5698 5700 5684 5689 5704 5723 5717 5716 5721 5722 5722 5724 5720 5721 5752 5754 5751 5754 5761 5761 5757 5750 5747 5745 5744 5742 5740 5738 5738 5737 5735 5734 5733 5733 5733 5732 5731 5730 5729 5729 5728 5728 5727 5726 5725 5724 5723
5689 5690 5687 5687 5690 5687 5698 5711 5712 5713 5716 5707 5702 5715 5709 5721 5727 5733 5744 5744 5748 5752 5751 5747 5741 5740 5739 5737 5736 5733 5733 5732 5730 5730 5730 5729 5728 5729 5728 5727 5726 5726 5725 5725 5725 5724 5723 5722 5721
5682 5681 5680 5672 5682 5698 5694 5695 5690 5688 5696 5699 5695 5685 5706 5719 5715 5720 5735 5735 5737 5743 5744 5740 5734 5734 5734 5732 5730 5728 5727 5727 5726 5725 5725 5725 5724 5724 5724 5723 5723 5722 5722 5722 5722 5721 5720 5720 5718
5676 5672 5666 5668 5675 5686 5688 5681 5678 5672 5675 5680 5682 5675 5684 5703 5705 5708 5711 5724 5727 5733 5735 5730 5727 5727 5728 5727 5725 5723 5722 5721 5721 5721 5721 5721 5720 5719 5719 5719 5719 5719 5719 5719 5718 5718 5717 5716 5715
5663 5664 5660 5663 5678 5680 5674 5672 5667 5666 5667 5668 5667 5665 5672 5687 5689 5693 5699 5705 5717 5725 5727 5723 5719 5719 5721 5720 5720 5718 5716 5715 5715 5717 5717 5717 5716 5715 5715 5715 5716 5717 5717 5716 5715 5714 5712 5711 5710
5652 5654 5658 5662 5660 5662 5664 5662 5654 5656 5657 5657 5661 5650 5659 5668 5668 5681 5690 5695 5702 5714 5718 5718 5713 5713 5713 5712 5712 5713 5710 5710 5710 5711 5711 5711 5711 5710 5711 5711 5713 5713 5713 5712 5711 5710 5708 5706 5705
5648 5645 5651 5656 5651 5649 5657 5645 5647 5641 5642 5651 5645 5629 5636 5652 5654 5663 5673 5679 5689 5700 5709 5712 5709 5708 5708 5706 5705 5705 5704 5704 5704 5704 5705 5705 5705 5705 5706 5707 5708 5709 5708 5707 5706 5705 5703 5701 5700
5640 5635 5645 5648 5642 5645 5650 5639 5641 5641 5634 5632 5629 5625 5633 5645 5642 5649 5656 5666 5673 5682 5697 5706 5704 5704 5703 5701 5699 5698 5696 5697 5699 5698 5698 5699 5702 5701 5701 5705 5703 5704 5703 5702 5702 5700 5698 5696 5695
5628 5633 5641 5644 5639 5634 5635 5630 5628 5623 5621 5622 5617 5621 5623 5626 5623 5632 5636 5647 5660 5669 5687 5698 5697 5699 5698 5696 5693 5693 5692 5692 5694 5695 5693 5699 5701 5701 5702 5698 5698 5698 5697 5697 5697 5695 5694 5695 5693
5631 5624 5637 5633 5631 5628 5623 5620 5622 5614 5614 5612 5609 5612 5615 5615 5618 5624 5632 5640 5650 5664 5680 5689 5691 5693 5693 5693 5692 5690 5690 5691 5693 5693 5693 5699 5699 5695 5695 5692 5693 5692 5692 5694 5692 5691 5694 5696 5694
5614 5628 5627 5626 5624 5619 5614 5616 5616 5611 5617 5616 5613 5611 5608 5607 5612 5618 5625 5633 5644 5656 5674 5680 5683 5686 5689 5688 5690 5691 5687 5689 5691 5690 5693 5695 5693 5692 5693 5691 5692 5691 5692 5691 5691 5692 5694 5693 5692
5616 5620 5623 5621 5619 5615 5615 5609 5612 5614 5617 5618 5615 5611 5607 5607 5610 5615 5621 5629 5641 5651 5662 5671 5676 5680 5685 5685 5688 5688 5685 5685 5686 5686 5688 5688 5690 5691 5691 5691 5690 5690 5691 5691 5691 5691 5690 5690 5689
5620 5615 5615 5617 5616 5615 5608 5609 5607 5620 5619 5616 5612 5609 5608 5607 5609 5611 5618 5626 5639 5645 5653 5667 5668 5675 5679 5680 5684 5683 5680 5678 5677 5679 5680 5682 5684 5686 5687 5686 5686 5687 5687 5688 5688 5687 5686 5685 5684
5606 5603 5613 5623 5616 5607 5607 5604 5610 5621 5619 5612 5609 5605 5603 5604 5607 5610 5614 5622 5634 5640 5637 5636 5657 5671 5671 5677 5675 5675 5674 5673 5671 5671 5673 5675 5677 5680 5681 5681 5681 5682 5682 5683 5685 5683 5681 5679 5677
5601 5604 5609 5623 5615 5608 5595 5610 5618 5622 5615 5609 5606 5602 5600 5599 5598 5605 5611 5619 5629 5632 5631 5629 5651 5665 5665 5673 5671 5669 5668 5667 5665 5665 5666 5668 5670 5673 5675 5676 5676 5676 5675 5676 5677 5677 5675 5673 5671
5608 5606 5608 5611 5608 5599 5590 5605 5618 5614 5615 5611 5607 5599 5593 5594 5597 5602 5606 5614 5621 5623 5624 5631 5632 5646 5653 5663 5661 5658 5661 5660 5660 5659 5659 5660 5662 5665 5668 5669 5670 5668 5668 5668 5668 5669 5668 5666 5664
5588 5602 5608 5602 5609 5607 5598 5603 5615 5619 5618 5613 5610 5603 5596 5596 5598 5602 5603 5608 5613 5614 5617 5617 5617 5617 5632 5619 5649 5639 5646 5655 5654 5653 5655 5652 5654 5658 5662 5662 5664 5664 5664 5664 5663 5663 5663 5661 5657
5600 5594 5597 5606 5611 5592 5597 5602 5612 5617 5616 5613 5610 5608 5603 5601 5603 5603 5605 5605 5605 5597 5595 5603 5603 5608 5601 5601 5598 5622 5626 5643 5648 5648 5650 5647 5648 5651 5655 5655 5656 5657 5659 5657 5657 5657 5657 5654 5651
5588 5589 5595 5610 5599 5593 5599 5604 5614 5618 5613 5611 5609 5606 5603 5602 5601 5601 5602 5601 5595 5594 5592 5589 5587 5587 5590 5580 5577 5592 5608 5623 5636 5639 5638 5640 5641 5643 5646 5648 5648 5650 5651 5650 5650 5649 5649 5646 5643
5588 5587 5593 5591 5594 5600 5592 5615 5615 5613 5612 5612 5612 5608 5602 5597 5596 5600 5602 5601 5592 5590 5592 5590 5588 5587 5589 5591 5581 5584 5594 5609 5621 5628 5628 5632 5634 5636 5640 5641 5641 5643 5644 5643 5642 5641 5640 5637 5636
5581 5589 5583 5579 5576 5577 5591 5585 5614 5613 5609 5612 5611 5604 5600 5597 5593 5593 5599 5598 5596 5593 5590 5585 5580 5588 5593 5598 5592 5586 5584 5598 5610 5614 5621 5625 5629 5630 5632 5633 5634 5634 5636 5636 5634 5634 5633 5632 5627
5580 5574 5572 5574 5570 5573 5585 5573 5612 5611 5603 5604 5604 5597 5595 5594 5592 5590 5591 5596 5595 5591 5588 5584 5585 5587 5587 5588 5592 5596 5599 5598 5608 5609 5615 5619 5622 5625 5627 5625 5626 5625 5627 5627 5626 5625 5624 5624 5622
5573 5567 5576 5575 5566 5562 5593 5578 5596 5603 5599 5601 5598 5591 5590 5591 5593 5593 5591 5595 5599 5590 5586 5582 5582 5586 5587 5587 5592 5593 5593 5599 5600 5607 5614 5614 5617 5622 5624 5623 5621 5622 5620 5619 5617 5616 5615 5616 5615
5558 5562 5562 5562 5555 5575 5576 5569 5595 5607 5603 5595 5588 5585 5585 5589 5590 5591 5589 5590 5596 5587 5582 5582 5582 5585 5584 5585 5588 5586 5590 5592 5607 5610 5609 5612 5615 5619 5623 5621 5618 5617 5614 5612 5608 5606 5605 5604 5603
5561 5558 5555 5550 5566 5572 5581 5569 5599 5605 5595 5590 5586 5585 5584 5584 5585 5587 5589 5588 5592 5589 5581 5577 5579 5581 5584 5588 5593 5594 5591 5596 5595 5598 5601 5606 5604 5608 5612 5613 5611 5609 5606 5604 5601 5597 5596 5594 5591
5550 5545 5554 5547 5562 5548 5577 5591 5604 5600 5586 5588 5582 5581 5578 5579 5583 5583 5585 5588 5591 5592 5583 5578 5576 5579 5585 5587 5588 5591 5582 5592 5592 5587 5593 5596 5594 5597 5599 5599 5599 5597 5597 5596 5594 5590 5587 5583 5578
5538 5541 5540 5543 5536 5553 5577 5580 5576 5579 5583 5576 5575 5575 5572 5575 5579 5581 5581 5584 5588 5591 5586 5577 5573 5576 5577 5579 5583 5587 5582 5585 5585 5588 5589 5589 5589 5590 5585 5585 5585 5581 5583 5583 5581 5577 5574 5571 5565
5534 5531 5532 5536 5547 5545 5558 5578 5593 5581 5574 5575 5576 5568 5563 5566 5570 5574 5579 5581 5585 5586 5586 5578 5569 5567 5571 5572 5571 5573 5576 5581 5579 5583 5588 5583 5584 5579 5576 5574 5572 5569 5568 5567 5567 5564 5560 5559 5551
5525 5529 5533 5529 5538 5545 5550 5556 5591 5581 5577 5575 5563 5560 5560 5555 5557 5564 5574 5578 5581 5579 5574 5572 5568 5565 5561 5564 5565 5564 5567 5570 5574 5573 5577 5578 5574 5569 5564 5562 5556 5554 5550 5551 5553 5551 5545 5542 5536